Location: Godiavel Galaoual
(15.2485°N, 12.6604°W)
Time: 03:32:39
(UTC+00:00)

Envisat - Visible Passes

Search period start: 26 May 2020 00:00
Search period end: 05 June 2020 00:00
Orbit: 764 x 766 km, 98.1° (Epoch: 25 May)

Date Brightness Start Highest point End Pass type
(mag) Time Alt. Az. Time Alt. Az. Time Alt. Az.
26 May 5.9 05:54:00 10° ENE 05:56:26 13° E 05:58:52 10° SE visible
27 May 5.6 19:34:15 10° SSW 19:38:02 21° W 19:41:50 10° NW visible
01 Jun 5.8 19:49:37 10° SW 19:52:11 14° W 19:54:45 10° WNW visible
03 Jun 5.8 05:56:21 10° ENE 05:59:14 15° E 06:02:07 10° SE visible
04 Jun 5.6 19:37:19 10° SW 19:40:50 19° W 19:44:23 10° NW visible
